sat.trackr.live / text

‹ back to catalog

STARLINK-6212

NORAD 57330 · 2023-099C

PAYLOAD ACTIVE UNKNOWN

§ Identity

Operator
Country
US
Launch date
2023-07-16
Launch site
AFETR
Launch vehicle
Mass (kg)
RCS (m²)

Purposes: comms

External: N2YO · Heavens-Above · Gunter

§ Orbital elements

Epoch: 2026-05-24T20:01:00.987744Z

Period
94.27 min
Inclination
43.0032°
Eccentricity
0.0001884
Mean motion
15.27580879 rev/d
Perigee alt
481.8 km
Apogee alt
484.3 km
Semi-major
6,861.2 km
B*
2.7497e-6
RAAN
182.2147°
Arg perigee
279.1512°
Mean anomaly
80.9126°
Rev number
15,772

§ Raw data

STARLINK-62121 57330U 23099C   26144.83403921 -.00000187  00000+0  27497-5 0  99982 57330  43.0032 182.2147 0001884 279.1512  80.9126 15.27580879157725

JSON: /api/v1/satellites/57330 · /tle

For live sub-satellite position, see the globe view (requires WebGL).

§ Visibility from observer

Set your observer location to see the next 7 days of passes ≥ 10°. The values pass through the URL so the page stays shareable.

No JS? Fill the form by hand. The geolocation button needs JavaScript.